TimeCDT,TemperatureF,Dew PointF,Humidity,Sea Level PressureIn,VisibilityMPH,Wind Direction,Wind SpeedMPH,Gust SpeedMPH,PrecipitationIn,Events,Conditions,WindDirDegrees,DateUTC
12:53 AM,63.0,55.9,78,29.98,10.0,East,3.5,-,N/A,,Partly Cloudy,80,2013-07-21 05:53:00
1:53 AM,61.0,53.1,75,29.96,10.0,ENE,6.9,-,N/A,,Clear,70,2013-07-21 06:53:00
2:53 AM,60.1,53.1,78,29.96,10.0,East,5.8,-,N/A,,Clear,80,2013-07-21 07:53:00
3:53 AM,59.0,52.0,78,29.95,10.0,East,5.8,-,N/A,,Clear,80,2013-07-21 08:53:00
4:53 AM,57.9,51.1,78,29.95,10.0,East,4.6,-,N/A,,Clear,100,2013-07-21 09:53:00
5:53 AM,57.0,51.1,81,29.96,10.0,Calm,Calm,-,N/A,,Mostly Cloudy,0,2013-07-21 10:53:00
6:53 AM,57.0,50.0,77,29.96,10.0,East,4.6,-,N/A,,Clear,80,2013-07-21 11:53:00
7:53 AM,59.0,51.1,75,29.97,10.0,East,6.9,-,N/A,,Overcast,100,2013-07-21 12:53:00
8:53 AM,61.0,51.1,70,29.97,10.0,Calm,Calm,-,N/A,,Overcast,0,2013-07-21 13:53:00
9:53 AM,66.0,53.1,63,29.95,10.0,ENE,6.9,-,N/A,,Partly Cloudy,70,2013-07-21 14:53:00
10:53 AM,68.0,55.0,63,29.95,10.0,East,5.8,-,N/A,,Overcast,100,2013-07-21 15:53:00
11:53 AM,72.0,57.9,61,29.94,10.0,Variable,6.9,19.6,N/A,,Mostly Cloudy,0,2013-07-21 16:53:00
12:53 PM,73.9,59.0,59,29.92,10.0,SE,9.2,-,N/A,,Partly Cloudy,130,2013-07-21 17:53:00
1:53 PM,77.0,60.1,56,29.90,10.0,SSE,9.2,16.1,N/A,,Mostly Cloudy,150,2013-07-21 18:53:00
2:53 PM,79.0,60.1,52,29.88,10.0,ESE,8.1,-,N/A,,Scattered Clouds,120,2013-07-21 19:53:00
3:53 PM,80.1,61.0,52,29.87,10.0,SSE,8.1,-,N/A,,Clear,160,2013-07-21 20:53:00
4:53 PM,79.0,62.1,56,29.86,10.0,South,6.9,-,N/A,,Partly Cloudy,170,2013-07-21 21:53:00
5:53 PM,79.0,63.0,58,29.84,10.0,SSE,9.2,-,N/A,,Scattered Clouds,150,2013-07-21 22:53:00
6:53 PM,79.0,64.0,60,29.82,10.0,SE,10.4,-,N/A,,Scattered Clouds,140,2013-07-21 23:53:00
7:53 PM,77.0,64.0,64,29.82,10.0,ESE,5.8,-,N/A,,Partly Cloudy,120,2013-07-22 00:53:00
8:53 PM,73.0,66.0,79,29.83,10.0,ESE,3.5,-,N/A,,Clear,110,2013-07-22 01:53:00
9:53 PM,71.1,64.9,81,29.82,10.0,SE,5.8,-,N/A,,Clear,130,2013-07-22 02:53:00
10:53 PM,69.1,64.9,87,29.81,10.0,SE,6.9,-,N/A,,Clear,140,2013-07-22 03:53:00
11:53 PM,69.1,66.0,90,29.80,10.0,SSE,5.8,-,N/A,,Clear,150,2013-07-22 04:53:00